Погода в Нова-Дембе

Польша     50°25′31″N   21°44′54″E
темп.,
°C
ветер,
м/с
пор.,
м/с
влажн.,
%
обл.,
%
осадки,
мм/ч
давл.,
гПа
погр.,
м
28 февраля, вс
вс2801:000сз3108731 0.0 1034341
04:000зсз37930 0.0 1034212
07:00+1з489038 0.0 1034329
10:00+5зсз586282 0.0 1033669
13:00+7з796356 0.0 1031877
16:00+6зсз5107199 0.0 1030912
19:00+4сз4108491 0.0 1030645
22:00+3ссз598399 0.0 1031761
1 марта, пн
пн101:00+3сз41087100 0.0 1032501
04:00+3с3792100 0.0 1032408
07:00+2ссз2593100 0.0 1034264
10:00+4ссз348198 0.0 1035498
13:00+5сз347699 0.0 1036629
16:00+5зсз347699 0.0 1035676
19:00+3з228793 0.0 103631
22:00+2зюз359255 0.0 1035103
2 марта, вт
вт201:00+1зюз359431 0.0 1035113
04:00+1зюз48930 0.0 1034171
07:00+1зюз49910 0.0 1033227
10:00+7з69680 0.0 1032542
13:00+11зсз69530 0.0 1031796
16:00+10зсз510560 0.0 1030677
19:00+6зсз37740 0.0 1032144
22:00+4зсз23820 0.0 103345
3 марта, ср
ср301:00+2з22890 0.0 103324
04:00+1з12910 0.0 103222
07:00+1зюз22920 0.0 103225
10:00+6зюз22720 0.0 1031339
13:00+9зюз23590 0.0 1029656
16:00+9юз23580 0.0 1026378
19:00+6юз23700 0.0 102623
22:00+4ююз23750 0.0 102422
4 марта, чт
чт401:00+3юз34850 0.0 102258
04:00+2юз36880 0.0 1020102
07:00+2юз4108812 0.0 1019225
10:00+7зюз696636 0.0 1017528
13:00+11з695425 0.0 10141310
16:00+11з485835 0.0 1012942
19:00+7юз347141 0.0 101278
22:00+6юз3779100 0.0 1011151